OPS 4682 DEB, 18691

Orbit data source: Space-Track

OPS 4682 DEB, 18691 is space debris in LEO originally from a launch on Sat, 03 Apr 1965 UTC launched from the Air Force Western Test Range (AFWTR). Debris objects in space refer to the collection of defunct objects orbiting the Earth. Examples of debris include non-operational satellites, rocket bodies, and fragments generated from explosions, collisions, or faulty payload assembly.

Loading next visibility...
Identifier
18691, 1965-027AJ
Orbit
LEO
Country
Flag of USUS
Related business
Manufacturer
Unknown
Mission
Spacecraft
Bus & Motor
Unknown
Mass
Unknown
Launch date (UTC)
1965-04-03 (61 years ago)
Launch vehicle
Unknown
Launch site
Air Force Western Test Range (AFWTR)
Object type
Payload
Rocket body
Debris
Shape & HBR
Unknown shape, 0.1 m
Radar Cross Section
Small (<0.1 m²)

Expand to show TLE details & history
Last TLE update: 1 day ago

TLE from 1 day ago
0 OPS 4682 DEB
1 18691U 65027AJ  26103.17683205  .00000540  00000-0  18517-2 0  9992
2 18691  90.2291 355.4220 0024216 281.2277 232.9925 12.96736958816660
Epoch: 2026-04-13T04:14Z
TLE epoch observation values (Epoch: 2026-04-13T04:14:38.289Z)
Latitude
26.03031°
Longitude
-89.49739°
Altitude
1,289.241 km
Speed
7.208 km/s
True Right ascension
11h 42m 07s
True Declination
25° 54' 16"
Sunlit
Object was in full shadow at epoch
Visualization orbit readout
Latitude
Unknown
Longitude
Unknown
Altitude
Unknown
Speed
Unknown
Apparent Right ascension
Unknown
Apparent Declination
Unknown
Sunlit
N/A
Visualization observer readout
Local Sidereal Time
18:51:12
Azimuth
Unknown
Elevation
Unknown
Doppler factor
Unknown
Orbital elements
Apogee altitude
1,290.556 km
Perigee altitude
1,253.504 km
Semi-major axis
7,650.167 km
Eccentricity
0.00242
Inclination
90.2291°
RAAN
355.422°
Arg. of periapsis
281.2277°
True anomaly
232.77131°
Mean anomaly
232.9925°
Eccentric anomaly
232.88186°
Mean motion
3.24367 °/min
Orbital period
110.99 mins
BSTAR
0.0018517
Loading maneuver chart data...
Computing Atmospheric mass density...
Loading historical data...
Loading historical data...
Loading historical data...
Loading historical data...
Loading historical data...
Loading historical data...
Loading historical data...

Documentation

Showing up to 5 results
|